Asheville, NC

7:27 AM EDT on July 28, 2017 (GMT -0400)
Asheville Regional

Weather History for KAVL - September, 2013

Change the Weather History Date:

Saturday, September 21, 2013

  Actual Average Record
Temperature  
Mean Temperature 65 °F 65 °F  
Max Temperature 69 °F 75 °F 91 °F (1931)
Min Temperature 61 °F 54 °F 38 °F (1897)
Degree Days  
Heating Degree Days 0 3  
Month to date heating degree days 4 20  
Since 1 July heating degree days 9 22  
Cooling Degree Days 0 2  
Month to date cooling degree days 105 82  
Year to date cooling degree days 843 839  
Growing Degree Days 14 (Base 50)    
Moisture  
Dew Point 61 °F    
Average Humidity 94    
Maximum Humidity 100    
Minimum Humidity 87    
Precipitation  
Precipitation 1.39 in 0.13 in 1.94 in (1979)
Month to date precipitation 1.93 2.75  
Year to date precipitation 60.69 34.36  
Snow  
Snow 0.00 in 0.00 in 0.00 in ()
Month to date snowfall 0.0 0.0  
Since 1 July snowfall 0.0 0.0  
Since 1 September snowfall 0.0 0.0  
Snow Depth 0.00 in    
Sea Level Pressure  
Sea Level Pressure 29.83 in    
Wind  
Wind Speed 7 mph (NNW)    
Max Wind Speed 24 mph    
Max Gust Speed 31 mph    
Visibility 7 miles    
Events Rain    
T = Trace of Precipitation, MM = Missing Value Source: NWS Daily Summary

Daily Weather History Graph

Daily Weather History Graph

Search for Another Location

Airport or City:

Trip Planner

Search our weather history database for the weather conditions in past years. The results will help you decide how hot, cold, wet, or windy it might be!

Date:

Astronomy

Sep. 21, 2013 Rise Set
Actual Time 7:17 AM EDT 7:28 PM EDT
Civil Twilight 6:52 AM EDT 7:53 PM EDT
Nautical Twilight 6:22 AM EDT 8:23 PM EDT
Astronomical Twilight 5:52 AM EDT 8:53 PM EDT
Moon 8:45 PM EDT (9/21) 9:28 AM EDT (9/21)
Length of Visible Light 13h 01m
Length of Day
12h 10m
Waning Gibbous, 94% of the Moon is Illuminated
Sep 21
Waning Gibbous
Sep 26
Last Quarter
Oct 4
New
Oct 11
First Quarter
Oct 18
Full

Hourly Weather History & Observations

Time (EDT) Temp. Dew Point Humidity Pressure Visibility Wind Dir Wind Speed Gust Speed Precip Events Conditions
12:54 AM 64.0 °F 63.0 °F 96% 29.94 in 7.0 mi Calm Calm - N/A   Partly Cloudy
1:54 AM 64.9 °F 62.1 °F 90% 29.92 in 9.0 mi ESE 3.5 mph - N/A   Clear
2:54 AM 62.1 °F 61.0 °F 96% 29.91 in 8.0 mi Calm Calm - N/A   Clear
3:54 AM 62.1 °F 61.0 °F 96% 29.88 in 8.0 mi Calm Calm - N/A   Clear
4:54 AM 61.0 °F 60.1 °F 97% 29.85 in 4.0 mi Calm Calm - N/A   Clear
5:54 AM 61.0 °F 59.0 °F 93% 29.84 in 6.0 mi SSE 3.5 mph - N/A   Clear
6:19 AM 62.6 °F 60.8 °F 94% 29.91 in 6.0 mi Calm Calm - N/A   Mostly Cloudy
6:46 AM 62.6 °F 60.8 °F 94% 29.91 in 7.0 mi Calm Calm - N/A   Overcast
6:54 AM 62.1 °F 61.0 °F 96% 29.84 in 8.0 mi ESE 3.5 mph - N/A   Overcast
7:37 AM 62.6 °F 60.8 °F 94% 29.92 in 8.0 mi SE 3.5 mph - N/A   Overcast
7:54 AM 63.0 °F 61.0 °F 93% 29.85 in 7.0 mi Calm Calm - N/A   Overcast
8:41 AM 64.4 °F 62.6 °F 94% 29.91 in 10.0 mi South 8.1 mph - 0.00 in Rain Light Rain
8:54 AM 64.9 °F 63.0 °F 93% 29.85 in 10.0 mi South 6.9 mph - 0.01 in Rain Light Rain
9:04 AM 66.2 °F 62.6 °F 88% 29.91 in 10.0 mi SSE 5.8 mph - 0.00 in   Overcast
9:32 AM 66.2 °F 62.6 °F 88% 29.91 in 10.0 mi SSE 6.9 mph - 0.00 in Rain Light Rain
9:54 AM 66.9 °F 64.0 °F 90% 29.84 in 10.0 mi SSE 9.2 mph - 0.00 in   Overcast
10:22 AM 66.2 °F 64.4 °F 94% 29.90 in 10.0 mi South 5.8 mph - 0.00 in   Overcast
10:54 AM 68.0 °F 64.0 °F 87% 29.82 in 10.0 mi SSW 3.5 mph - 0.00 in   Overcast
11:54 AM 68.0 °F 64.9 °F 90% 29.81 in 10.0 mi South 6.9 mph - 0.00 in Rain Light Rain
12:54 PM 68.0 °F 64.0 °F 87% 29.80 in 10.0 mi South 10.4 mph 19.6 mph 0.01 in Rain Light Rain
1:42 PM 68.0 °F 64.4 °F 88% 29.85 in 10.0 mi SSW 6.9 mph - 0.02 in Rain Light Rain
1:54 PM 68.0 °F 64.9 °F 90% 29.78 in 10.0 mi SSW 6.9 mph - 0.02 in Rain Light Rain
2:02 PM 68.0 °F 64.4 °F 88% 29.84 in 10.0 mi SSW 5.8 mph - 0.00 in Rain Light Rain
2:10 PM 68.0 °F 64.4 °F 88% 29.83 in 10.0 mi South 8.1 mph - 0.00 in Rain Light Rain
2:29 PM 66.2 °F 64.4 °F 94% 29.83 in 5.0 mi West 3.5 mph - 0.02 in Rain Rain
2:35 PM 66.2 °F 64.4 °F 94% 29.84 in 4.0 mi NNW 11.5 mph - 0.03 in Rain Rain
2:47 PM 62.6 °F 59.0 °F 88% 29.83 in 2.5 mi North 13.8 mph 20.7 mph 0.08 in Rain Heavy Rain
2:54 PM 62.1 °F 59.0 °F 90% 29.78 in 3.0 mi North 10.4 mph 20.7 mph 0.10 in Rain Heavy Rain
3:00 PM 62.6 °F 59.0 °F 88% 29.83 in 2.5 mi NNW 19.6 mph 31.1 mph 0.04 in Rain Heavy Rain
3:03 PM 60.8 °F 59.0 °F 94% 29.84 in 2.5 mi North 18.4 mph 31.1 mph 0.06 in Rain Heavy Rain
3:10 PM 60.8 °F 60.8 °F 100% 29.83 in 1.2 mi North 16.1 mph - 0.16 in Rain Heavy Rain
3:22 PM 60.8 °F 60.8 °F 100% 29.83 in 1.5 mi North 10.4 mph 19.6 mph 0.32 in Rain Heavy Rain
3:46 PM 60.8 °F 60.8 °F 100% 29.84 in 1.5 mi NNW 10.4 mph - 0.50 in Rain Heavy Rain
3:54 PM 61.0 °F 60.1 °F 97% 29.78 in 1.5 mi North 9.2 mph - 0.56 in Rain Heavy Rain
4:01 PM 60.8 °F 60.8 °F 100% 29.83 in 2.0 mi NNW 9.2 mph - 0.05 in Rain Heavy Rain
4:09 PM 60.8 °F 60.8 °F 100% 29.83 in 1.2 mi NW 6.9 mph - 0.11 in Rain Heavy Rain
4:19 PM 60.8 °F 60.8 °F 100% 29.83 in 1.5 mi Calm Calm - 0.21 in Rain Heavy Rain
4:31 PM 60.8 °F 60.8 °F 100% 29.83 in 1.5 mi WNW 3.5 mph - 0.29 in Rain Heavy Rain
4:38 PM 60.8 °F 60.8 °F 100% 29.82 in 1.2 mi NNE 3.5 mph - 0.36 in Rain Heavy Rain
4:42 PM 60.8 °F 60.8 °F 100% 29.82 in 2.0 mi North 3.5 mph - 0.38 in Rain Rain
4:54 PM 61.0 °F 60.1 °F 97% 29.77 in 1.5 mi Calm Calm - 0.47 in Rain Heavy Rain
5:07 PM 60.8 °F 60.8 °F 100% 29.81 in 2.5 mi Variable 3.5 mph - 0.09 in Rain Heavy Rain
5:21 PM 60.8 °F 60.8 °F 100% 29.80 in 3.0 mi ENE 4.6 mph - 0.14 in Rain Rain
5:54 PM 62.1 °F 60.1 °F 93% 29.74 in 6.0 mi NNW 5.8 mph - 0.19 in Rain Rain
6:03 PM 62.6 °F 60.8 °F 94% 29.80 in 10.0 mi NW 8.1 mph - 0.01 in Rain Light Rain
6:11 PM 62.6 °F 60.8 °F 94% 29.79 in 8.0 mi NNW 10.4 mph - 0.02 in Rain Light Rain
6:15 PM 62.6 °F 60.8 °F 94% 29.79 in 8.0 mi Calm Calm - 0.02 in Rain Light Rain
6:29 PM 62.6 °F 60.8 °F 94% 29.79 in 10.0 mi Variable 5.8 mph - 0.03 in Rain Light Rain
6:37 PM 62.6 °F 60.8 °F 94% 29.80 in 10.0 mi NNW 10.4 mph - 0.03 in Rain Light Rain
6:54 PM 62.1 °F 60.1 °F 93% 29.75 in 10.0 mi North 9.2 mph - 0.03 in Rain Light Rain
7:47 PM 62.6 °F 60.8 °F 94% 29.79 in 10.0 mi North 9.2 mph - N/A   Overcast
7:54 PM 62.1 °F 60.1 °F 93% 29.74 in 10.0 mi North 9.2 mph - N/A   Overcast
8:21 PM 60.8 °F 60.8 °F 100% 29.79 in 10.0 mi North 11.5 mph - N/A   Scattered Clouds
8:54 PM 62.1 °F 59.0 °F 90% 29.74 in 10.0 mi North 13.8 mph 20.7 mph N/A   Scattered Clouds
9:54 PM 61.0 °F 59.0 °F 93% 29.75 in 10.0 mi North 8.1 mph - N/A   Mostly Cloudy
10:54 PM 61.0 °F 59.0 °F 93% 29.76 in 10.0 mi North 9.2 mph - N/A   Scattered Clouds
11:54 PM 61.0 °F 59.0 °F 93% 29.77 in 10.0 mi North 6.9 mph - N/A   Mostly Cloudy